User: anonymous   Login
Location: Unspecified
(0.0000°N, 0.0000°E)
Time: 00:15:31
(UTC+02:00)
Language:

Meteor PRIRODA - Orbit

View from above orbital plane
View from above orbital plane
View from above satellite
View from above satellite

Ground track
Ground track

The orbit data is extracted from the following two-line orbital elements,

1 12585U 81065A   15116.87331275  .00004625  00000-0  23484-3 0  9992
2 12585 097.3461 102.4344 0014121 251.3185 167.2734 15.17296061843503
Epoch (UTC): 26 April 2015 20:57:34
Eccentricity: 0.0014121
inclination: 97.3461°
perigee height: 504 km
apogee height: 524 km
right ascension of ascending node: 102.4344°
argument of perigee: 251.3185°
revolutions per day: 15.17296061
mean anomaly at epoch: 167.2734°
orbit number at epoch: 84350

The dashed part of the orbit path shows where the satellite is in the earth's shadow,  

DLR